Location: Gokavaram
(16.9752°N, 81.0696°E)
Time: 11:37:57
(UTC+00:00)

Aureole 3 Rocket - Pass Details

Date: 15 May 2026
Orbit: 398 x 1686 km, 82.5° (Epoch: 9 June)

Event Time Altitude Azimuth Distance (km) Brightness Sun altitude
Exits shadow 15:19:58 55° 208° (SSW) 1,281 4.4 -30.7°
Maximum altitude 15:21:33 75° 275° (W) 1,177 4.4 -31.0°
Drops below altitude 10° 15:29:55 10° 1° (N) 3,522 7.3 -32.6°
Sets 15:33:10 0° 3° (N) 4,651 8.0 -33.2°
